Tracking 19794 objects as of 21-Jul-2019
HD Live streaming from Space Station
objects crossing your sky now

FENGYUN 1C DEB

Track FENGYUN 1C DEB now!
10-day predictions


NORAD ID: 31003
Int'l Code: 1999-025BCV
Perigee: 824.8 km
Apogee: 894.4 km
Inclination: 99.0 °
Period: 102.0 minutes
Semi major axis: 7230 km
RCS: 0.0252 m2 (small)
Launch date: May 10, 1999
Source: People's Republic of China (PRC)
Launch site: Taiyaun Space Center, China (TSC)

Note: This is SATELLITE DEBRIS
aabbcc
Your satellite tracking list
Your tracking list is empty




NASA's NSSDC Master Catalog

Two Line Element Set (TLE):
1 31003U 99025BCV 19200.60911597  .00000275  00000-0  17305-3 0  9995
2 31003  98.9973 243.7977 0048143  24.0555 336.2850 14.12031094634313
Source of the keplerian elements: AFSPC